Time,TemperatureF,DewpointF,PressureIn,WindDirection,WindDirectionDegrees,WindSpeedMPH,WindSpeedGustMPH,Humidity,HourlyPrecipIn,Conditions,Clouds,dailyrainin,SoftwareType,DateUTC
2013-03-20 00:00:00,35.8,19.9,30.12,WNW,283,3.0,7.0,52,0.00,,---,0.00,VWS V14.01,2013-03-20 04:00:00,
2013-03-20 00:05:00,35.6,19.7,30.12,WSW,240,2.0,4.0,52,0.00,,---,0.00,VWS V14.01,2013-03-20 04:05:00,
2013-03-20 00:10:00,35.5,19.6,30.12,West,274,3.0,4.0,52,0.00,,---,0.00,VWS V14.01,2013-03-20 04:10:00,
2013-03-20 00:15:00,35.4,20.0,30.11,WNW,287,3.0,5.0,53,0.00,,---,0.00,VWS V14.01,2013-03-20 04:15:00,
2013-03-20 00:20:00,35.4,20.0,30.11,West,260,3.0,5.0,53,0.00,,---,0.00,VWS V14.01,2013-03-20 04:20:00,
2013-03-20 00:25:00,35.3,20.3,30.11,WNW,295,2.0,5.0,54,0.00,,---,0.00,VWS V14.01,2013-03-20 04:25:00,
2013-03-20 00:30:00,35.2,20.2,30.11,West,269,3.0,5.0,54,0.00,,---,0.00,VWS V14.01,2013-03-20 04:30:00,
2013-03-20 00:35:00,35.3,20.3,30.11,West,269,3.0,5.0,54,0.00,,---,0.00,VWS V14.01,2013-03-20 04:35:00,
2013-03-20 00:40:00,35.2,20.2,30.11,West,267,1.0,5.0,54,0.00,,---,0.00,VWS V14.01,2013-03-20 04:40:00,
2013-03-20 00:45:00,35.1,20.6,30.11,West,278,3.0,5.0,55,0.00,,---,0.00,VWS V14.01,2013-03-20 04:45:00,
2013-03-20 00:50:00,35.0,20.5,30.11,WNW,283,2.0,5.0,55,0.00,,---,0.00,VWS V14.01,2013-03-20 04:50:00,
2013-03-20 00:55:00,35.0,20.5,30.11,West,278,2.0,5.0,55,0.00,,---,0.00,VWS V14.01,2013-03-20 04:55:00,
2013-03-20 01:00:00,35.0,20.5,30.11,WNW,290,3.0,6.0,55,0.00,,---,0.00,VWS V14.01,2013-03-20 05:00:00,
2013-03-20 01:05:00,35.0,20.5,30.11,West,270,5.0,7.0,55,0.00,,---,0.00,VWS V14.01,2013-03-20 05:05:00,
2013-03-20 01:10:00,35.1,21.0,30.11,West,267,3.0,8.0,56,0.00,,---,0.00,VWS V14.01,2013-03-20 05:10:00,
2013-03-20 01:15:00,34.9,20.8,30.11,West,271,2.0,8.0,56,0.00,,---,0.00,VWS V14.01,2013-03-20 05:15:00,
2013-03-20 01:20:00,34.7,21.0,30.11,West,279,8.0,8.0,57,0.00,,---,0.00,VWS V14.01,2013-03-20 05:20:00,
2013-03-20 01:25:00,34.7,21.0,30.10,West,270,3.0,8.0,57,0.00,,---,0.00,VWS V14.01,2013-03-20 05:25:00,
2013-03-20 01:30:00,34.7,21.0,30.10,West,280,3.0,8.0,57,0.00,,---,0.00,VWS V14.01,2013-03-20 05:30:00,
2013-03-20 01:35:00,34.6,21.0,30.10,West,270,3.0,5.0,57,0.00,,---,0.00,VWS V14.01,2013-03-20 05:35:00,
2013-03-20 01:40:00,34.5,20.9,30.10,WNW,293,3.0,5.0,57,0.00,,---,0.00,VWS V14.01,2013-03-20 05:40:00,
2013-03-20 01:45:00,34.4,20.8,30.10,West,268,5.0,6.0,57,0.00,,---,0.00,VWS V14.01,2013-03-20 05:45:00,
2013-03-20 01:50:00,34.4,20.8,30.10,West,273,2.0,6.0,57,0.00,,---,0.00,VWS V14.01,2013-03-20 05:50:00,
2013-03-20 01:55:00,34.3,21.1,30.10,West,277,2.0,6.0,58,0.00,,---,0.00,VWS V14.01,2013-03-20 05:55:00,
2013-03-20 02:00:00,34.2,21.4,30.10,West,271,2.0,7.0,59,0.00,,---,0.00,VWS V14.01,2013-03-20 06:00:00,
2013-03-20 02:05:00,34.2,21.4,30.10,WSW,249,1.0,7.0,59,0.00,,---,0.00,VWS V14.01,2013-03-20 06:05:00,
2013-03-20 02:10:00,34.1,21.7,30.10,West,281,1.0,7.0,60,0.00,,---,0.00,VWS V14.01,2013-03-20 06:10:00,
2013-03-20 02:15:00,33.9,21.5,30.10,WNW,288,2.0,7.0,60,0.00,,---,0.00,VWS V14.01,2013-03-20 06:15:00,
2013-03-20 02:20:00,33.8,21.4,30.10,NNW,333,3.0,7.0,60,0.00,,---,0.00,VWS V14.01,2013-03-20 06:20:00,
2013-03-20 02:25:00,33.8,21.4,30.10,WNW,285,2.0,7.0,60,0.00,,---,0.00,VWS V14.01,2013-03-20 06:25:00,
2013-03-20 02:30:00,33.7,21.3,30.10,West,271,2.0,7.0,60,0.00,,---,0.00,VWS V14.01,2013-03-20 06:30:00,
2013-03-20 02:35:00,33.7,21.3,30.10,WNW,284,2.0,4.0,60,0.00,,---,0.00,VWS V14.01,2013-03-20 06:35:00,
2013-03-20 02:40:00,33.6,21.2,30.10,West,264,3.0,4.0,60,0.00,,---,0.00,VWS V14.01,2013-03-20 06:40:00,
2013-03-20 02:45:00,33.6,21.2,30.10,West,280,2.0,4.0,60,0.00,,---,0.00,VWS V14.01,2013-03-20 06:45:00,
2013-03-20 02:50:00,33.5,21.5,30.10,WSW,253,2.0,5.0,61,0.00,,---,0.00,VWS V14.01,2013-03-20 06:50:00,
2013-03-20 02:55:00,33.6,21.2,30.10,West,277,3.0,6.0,60,0.00,,---,0.00,VWS V14.01,2013-03-20 06:55:00,
2013-03-20 03:00:00,33.6,21.2,30.10,West,275,2.0,6.0,60,0.00,,---,0.00,VWS V14.01,2013-03-20 07:00:00,
2013-03-20 03:05:00,33.6,21.6,30.09,West,278,2.0,3.0,61,0.00,,---,0.00,VWS V14.01,2013-03-20 07:05:00,
2013-03-20 03:10:00,33.5,21.5,30.09,West,264,2.0,4.0,61,0.00,,---,0.00,VWS V14.01,2013-03-20 07:10:00,
2013-03-20 03:15:00,33.4,21.4,30.09,WNW,284,1.0,5.0,61,0.00,,---,0.00,VWS V14.01,2013-03-20 07:15:00,
2013-03-20 03:20:00,33.5,21.5,30.09,WNW,293,3.0,5.0,61,0.00,,---,0.00,VWS V14.01,2013-03-20 07:20:00,
2013-03-20 03:25:00,33.5,21.5,30.09,WNW,285,2.0,6.0,61,0.00,,---,0.00,VWS V14.01,2013-03-20 07:25:00,
2013-03-20 03:30:00,33.4,21.4,30.09,West,267,2.0,6.0,61,0.00,,---,0.00,VWS V14.01,2013-03-20 07:30:00,
2013-03-20 03:35:00,33.2,21.6,30.09,West,274,2.0,3.0,62,0.00,,---,0.00,VWS V14.01,2013-03-20 07:35:00,
2013-03-20 03:40:00,33.1,21.5,30.08,West,275,1.0,4.0,62,0.00,,---,0.00,VWS V14.01,2013-03-20 07:40:00,
2013-03-20 03:45:00,32.9,21.7,30.08,West,274,2.0,4.0,63,0.00,,---,0.00,VWS V14.01,2013-03-20 07:45:00,
2013-03-20 03:50:00,32.9,21.7,30.08,WNW,288,2.0,4.0,63,0.00,,---,0.00,VWS V14.01,2013-03-20 07:50:00,
2013-03-20 03:55:00,32.8,21.6,30.08,West,271,2.0,4.0,63,0.00,,---,0.00,VWS V14.01,2013-03-20 07:55:00,
2013-03-20 04:00:00,32.8,21.6,30.08,WNW,291,1.0,4.0,63,0.00,,---,0.00,VWS V14.01,2013-03-20 08:00:00,
2013-03-20 04:05:00,32.6,21.4,30.08,WNW,295,2.0,3.0,63,0.00,,---,0.00,VWS V14.01,2013-03-20 08:05:00,
2013-03-20 04:10:00,32.5,21.3,30.07,West,274,4.0,4.0,63,0.00,,---,0.00,VWS V14.01,2013-03-20 08:10:00,
2013-03-20 04:15:00,32.5,20.9,30.07,WNW,287,2.0,4.0,62,0.00,,---,0.00,VWS V14.01,2013-03-20 08:15:00,
2013-03-20 04:20:00,32.6,21.0,30.07,WNW,285,3.0,5.0,62,0.00,,---,0.00,VWS V14.01,2013-03-20 08:20:00,
2013-03-20 04:25:00,32.7,21.1,30.07,NW,318,3.0,6.0,62,0.00,,---,0.00,VWS V14.01,2013-03-20 08:25:00,
2013-03-20 04:30:00,32.7,21.1,30.06,WNW,291,2.0,6.0,62,0.00,,---,0.00,VWS V14.01,2013-03-20 08:30:00,
2013-03-20 04:35:00,32.6,21.0,30.06,WNW,296,1.0,4.0,62,0.00,,---,0.00,VWS V14.01,2013-03-20 08:35:00,
2013-03-20 04:40:00,32.5,20.9,30.06,West,265,2.0,4.0,62,0.00,,---,0.00,VWS V14.01,2013-03-20 08:40:00,
2013-03-20 04:45:00,32.4,20.9,30.06,WNW,285,2.0,4.0,62,0.00,,---,0.00,VWS V14.01,2013-03-20 08:45:00,
2013-03-20 04:50:00,32.3,20.8,30.06,West,276,1.0,4.0,62,0.00,,---,0.00,VWS V14.01,2013-03-20 08:50:00,
2013-03-20 04:55:00,32.2,21.0,30.06,West,274,2.0,4.0,63,0.00,,---,0.00,VWS V14.01,2013-03-20 08:55:00,
2013-03-20 05:00:00,32.0,20.9,30.05,WNW,283,1.0,4.0,63,0.00,,---,0.00,VWS V14.01,2013-03-20 09:00:00,
2013-03-20 05:05:00,31.8,20.7,30.05,West,262,2.0,2.0,63,0.00,,---,0.00,VWS V14.01,2013-03-20 09:05:00,
2013-03-20 05:10:00,31.7,20.6,30.05,WNW,288,2.0,3.0,63,0.00,,---,0.00,VWS V14.01,2013-03-20 09:10:00,
2013-03-20 05:15:00,31.7,20.6,30.05,WNW,283,1.0,3.0,63,0.00,,---,0.00,VWS V14.01,2013-03-20 09:15:00,
2013-03-20 05:20:00,31.5,20.7,30.05,West,273,1.0,3.0,64,0.00,,---,0.00,VWS V14.01,2013-03-20 09:20:00,
2013-03-20 05:25:00,31.4,21.0,30.04,West,266,3.0,3.0,65,0.00,,---,0.00,VWS V14.01,2013-03-20 09:25:00,
2013-03-20 05:30:00,31.3,20.9,30.05,West,267,0.0,3.0,65,0.00,,---,0.00,VWS V14.01,2013-03-20 09:30:00,
2013-03-20 05:35:00,31.2,20.8,30.05,West,276,0.0,2.0,65,0.00,,---,0.00,VWS V14.01,2013-03-20 09:35:00,
2013-03-20 05:40:00,31.0,20.6,30.04,WSW,248,0.0,2.0,65,0.00,,---,0.00,VWS V14.01,2013-03-20 09:40:00,
2013-03-20 05:45:00,30.9,20.5,30.04,WSW,245,2.0,2.0,65,0.00,,---,0.00,VWS V14.01,2013-03-20 09:45:00,
2013-03-20 05:50:00,30.9,20.5,30.04,West,275,1.0,3.0,65,0.00,,---,0.00,VWS V14.01,2013-03-20 09:50:00,
2013-03-20 05:55:00,31.0,20.3,30.04,West,266,1.0,3.0,64,0.00,,---,0.00,VWS V14.01,2013-03-20 09:55:00,
2013-03-20 06:00:00,30.9,20.5,30.03,West,263,0.0,3.0,65,0.00,,---,0.00,VWS V14.01,2013-03-20 10:00:00,
2013-03-20 06:05:00,30.5,20.5,30.03,SW,215,0.0,0.0,66,0.00,,---,0.00,VWS V14.01,2013-03-20 10:05:00,
2013-03-20 06:10:00,30.3,20.7,30.03,West,267,0.0,2.0,67,0.00,,---,0.00,VWS V14.01,2013-03-20 10:10:00,
2013-03-20 06:15:00,30.2,20.6,30.03,WSW,249,2.0,2.0,67,0.00,,---,0.00,VWS V14.01,2013-03-20 10:15:00,
2013-03-20 06:20:00,30.2,20.6,30.03,WSW,243,0.0,2.0,67,0.00,,---,0.00,VWS V14.01,2013-03-20 10:20:00,
2013-03-20 06:25:00,30.1,20.5,30.03,SW,235,0.0,2.0,67,0.00,,---,0.00,VWS V14.01,2013-03-20 10:25:00,
2013-03-20 06:30:00,30.0,20.4,30.03,SW,229,0.0,2.0,67,0.00,,---,0.00,VWS V14.01,2013-03-20 10:30:00,
2013-03-20 06:35:00,29.9,20.3,30.03,SW,214,1.0,2.0,67,0.00,,---,0.00,VWS V14.01,2013-03-20 10:35:00,
2013-03-20 06:40:00,29.7,20.5,30.03,WSW,245,0.0,2.0,68,0.00,,---,0.00,VWS V14.01,2013-03-20 10:40:00,
2013-03-20 06:45:00,29.4,20.5,30.03,WSW,245,0.0,2.0,69,0.00,,---,0.00,VWS V14.01,2013-03-20 10:45:00,
2013-03-20 06:50:00,29.2,20.3,30.03,WSW,242,0.0,2.0,69,0.00,,---,0.00,VWS V14.01,2013-03-20 10:50:00,
2013-03-20 06:55:00,29.3,20.4,30.03,West,264,0.0,2.0,69,0.00,,---,0.00,VWS V14.01,2013-03-20 10:55:00,
2013-03-20 07:00:00,29.4,20.5,30.03,SW,234,0.0,2.0,69,0.00,,---,0.00,VWS V14.01,2013-03-20 11:00:00,
2013-03-20 07:05:00,29.4,20.5,30.03,WSW,257,0.0,0.0,69,0.00,,---,0.00,VWS V14.01,2013-03-20 11:05:00,
2013-03-20 07:10:00,29.4,20.5,30.03,West,264,0.0,2.0,69,0.00,,---,0.00,VWS V14.01,2013-03-20 11:10:00,
2013-03-20 07:15:00,29.5,20.6,30.03,WSW,246,1.0,2.0,69,0.00,,---,0.00,VWS V14.01,2013-03-20 11:15:00,
2013-03-20 07:20:00,29.4,20.5,30.03,SSW,212,0.0,2.0,69,0.00,,---,0.00,VWS V14.01,2013-03-20 11:20:00,
2013-03-20 07:25:00,29.5,20.9,30.03,WSW,245,1.0,2.0,70,0.00,,---,0.00,VWS V14.01,2013-03-20 11:25:00,
2013-03-20 07:30:00,29.3,20.7,30.03,WSW,240,0.0,2.0,70,0.00,,---,0.00,VWS V14.01,2013-03-20 11:30:00,
2013-03-20 07:35:00,29.3,20.7,30.03,SSE,158,1.0,8.0,70,0.00,,---,0.00,VWS V14.01,2013-03-20 11:35:00,
2013-03-20 07:40:00,29.4,20.8,30.04,West,262,1.0,8.0,70,0.00,,---,0.00,VWS V14.01,2013-03-20 11:40:00,
2013-03-20 07:45:00,29.5,20.9,30.04,West,278,2.0,8.0,70,0.00,,---,0.00,VWS V14.01,2013-03-20 11:45:00,
2013-03-20 07:50:00,29.5,20.9,30.04,WSW,245,0.0,8.0,70,0.00,,---,0.00,VWS V14.01,2013-03-20 11:50:00,
2013-03-20 07:55:00,29.3,20.7,30.04,ESE,118,0.0,8.0,70,0.00,,---,0.00,VWS V14.01,2013-03-20 11:55:00,
2013-03-20 08:00:00,29.1,20.5,30.04,SW,219,0.0,8.0,70,0.00,,---,0.00,VWS V14.01,2013-03-20 12:00:00,
2013-03-20 08:05:00,29.0,20.8,30.04,SE,129,0.0,0.0,71,0.00,,---,0.00,VWS V14.01,2013-03-20 12:05:00,
2013-03-20 08:10:00,29.2,21.0,30.04,West,264,0.0,0.0,71,0.00,,---,0.00,VWS V14.01,2013-03-20 12:10:00,
2013-03-20 08:15:00,29.6,21.4,30.04,WNW,293,0.0,0.0,71,0.00,,---,0.00,VWS V14.01,2013-03-20 12:15:00,
2013-03-20 08:20:00,29.8,21.2,30.05,NW,320,0.0,0.0,70,0.00,,---,0.00,VWS V14.01,2013-03-20 12:20:00,
2013-03-20 08:25:00,30.1,21.5,30.05,WNW,300,3.0,3.0,70,0.00,,---,0.00,VWS V14.01,2013-03-20 12:25:00,
2013-03-20 08:30:00,30.4,21.5,30.05,West,281,1.0,7.0,69,0.00,,---,0.00,VWS V14.01,2013-03-20 12:30:00,
2013-03-20 08:34:00,30.8,21.9,30.05,WNW,287,3.0,4.0,69,0.00,,---,0.00,VWS V14.01,2013-03-20 12:34:00,
2013-03-20 08:39:00,31.2,21.9,30.05,WNW,302,1.0,6.0,68,0.00,,---,0.00,VWS V14.01,2013-03-20 12:39:00,
2013-03-20 08:44:00,31.5,21.8,30.05,WNW,288,1.0,6.0,67,0.00,,---,0.00,VWS V14.01,2013-03-20 12:44:00,
2013-03-20 08:49:00,31.8,22.1,30.05,West,266,2.0,6.0,67,0.00,,---,0.00,VWS V14.01,2013-03-20 12:49:00,
2013-03-20 08:54:00,32.0,22.3,30.05,WNW,285,3.0,6.0,67,0.00,,---,0.00,VWS V14.01,2013-03-20 12:54:00,
2013-03-20 08:59:00,32.3,22.2,30.05,WNW,292,1.0,7.0,66,0.00,,---,0.00,VWS V14.01,2013-03-20 12:59:00,
2013-03-20 09:00:00,32.4,22.3,30.05,West,260,3.0,7.0,66,0.00,,---,0.00,VWS V15.00,2013-03-20 13:00:00,
2013-03-20 09:04:00,32.6,22.1,30.05,West,280,4.0,6.0,65,0.00,,---,0.00,VWS V14.01,2013-03-20 13:04:00,
2013-03-20 09:09:00,32.9,22.1,30.04,WNW,293,6.0,8.0,64,0.00,,---,0.00,VWS V14.01,2013-03-20 13:09:00,
2013-03-20 09:14:00,33.1,22.3,30.05,NW,306,4.0,8.0,64,0.00,,---,0.00,VWS V14.01,2013-03-20 13:14:00,
2013-03-20 09:19:00,33.3,22.5,30.04,NW,312,6.0,8.0,64,0.00,,---,0.00,VWS V14.01,2013-03-20 13:19:00,
2013-03-20 09:24:00,33.6,22.7,30.04,WNW,294,2.0,9.0,64,0.00,,---,0.00,VWS V14.01,2013-03-20 13:24:00,
2013-03-20 09:29:00,33.7,22.1,30.04,West,260,2.0,10.0,62,0.00,,---,0.00,VWS V14.01,2013-03-20 13:29:00,
2013-03-20 09:30:00,33.6,22.0,30.04,West,262,5.0,10.0,62,0.00,,---,0.00,VWS V15.00,2013-03-20 13:30:00,
2013-03-20 09:34:00,33.6,22.4,30.04,NW,304,2.0,8.0,63,0.00,,---,0.00,VWS V14.01,2013-03-20 13:34:00,
2013-03-20 09:39:00,33.8,22.5,30.04,West,271,7.0,8.0,63,0.00,,---,0.00,VWS V14.01,2013-03-20 13:39:00,
2013-03-20 09:44:00,33.7,22.1,30.04,WNW,295,3.0,10.0,62,0.00,,---,0.00,VWS V14.01,2013-03-20 13:44:00,
2013-03-20 09:49:00,33.7,21.7,30.04,WNW,301,4.0,10.0,61,0.00,,---,0.00,VWS V14.01,2013-03-20 13:49:00,
2013-03-20 09:54:00,33.6,21.2,30.04,West,274,7.0,11.0,60,0.00,,---,0.00,VWS V14.01,2013-03-20 13:54:00,
2013-03-20 09:59:00,33.8,21.8,30.05,West,266,5.0,11.0,61,0.00,,---,0.00,VWS V14.01,2013-03-20 13:59:00,
2013-03-20 10:00:00,33.9,21.1,30.04,WNW,293,5.0,11.0,59,0.00,,---,0.00,VWS V15.00,2013-03-20 14:00:00,
2013-03-20 10:04:00,34.0,20.8,30.04,West,267,4.0,6.0,58,0.00,,---,0.00,VWS V14.01,2013-03-20 14:04:00,
2013-03-20 10:09:00,34.3,21.1,30.04,NW,307,3.0,8.0,58,0.00,,---,0.00,VWS V14.01,2013-03-20 14:09:00,
2013-03-20 10:14:00,34.5,21.3,30.04,West,277,6.0,8.0,58,0.00,,---,0.00,VWS V14.01,2013-03-20 14:14:00,
2013-03-20 10:19:00,34.5,20.9,30.04,WNW,300,5.0,10.0,57,0.00,,---,0.00,VWS V14.01,2013-03-20 14:19:00,
2013-03-20 10:24:00,34.5,20.9,30.04,West,274,4.0,11.0,57,0.00,,---,0.00,VWS V14.01,2013-03-20 14:24:00,
2013-03-20 10:29:00,34.9,21.2,30.03,West,280,5.0,11.0,57,0.00,,---,0.00,VWS V14.01,2013-03-20 14:29:00,
2013-03-20 10:30:00,34.9,20.8,30.03,NW,319,4.0,11.0,56,0.00,,---,0.00,VWS V15.00,2013-03-20 14:30:00,
2013-03-20 10:34:00,34.9,20.8,30.03,WSW,253,2.0,9.0,56,0.00,,---,0.00,VWS V14.01,2013-03-20 14:34:00,
2013-03-20 10:40:00,35.5,21.0,30.03,WNW,285,4.0,9.0,55,0.00,,---,0.00,VWS V14.01,2013-03-20 14:40:00,
2013-03-20 10:45:00,35.4,19.5,30.04,NW,314,6.0,13.0,52,0.00,,---,0.00,VWS V14.01,2013-03-20 14:45:00,
2013-03-20 10:50:00,35.5,20.5,30.03,West,263,6.0,13.0,54,0.00,,---,0.00,VWS V14.01,2013-03-20 14:50:00,
2013-03-20 10:55:00,35.4,20.4,30.03,West,262,4.0,13.0,54,0.00,,---,0.00,VWS V14.01,2013-03-20 14:55:00,
2013-03-20 10:59:00,35.8,20.4,30.03,WNW,285,3.0,13.0,53,0.00,,---,0.00,VWS V14.01,2013-03-20 14:59:00,
2013-03-20 11:00:00,35.8,20.8,30.03,WNW,291,4.0,13.0,54,0.00,,---,0.00,VWS V15.00,2013-03-20 15:00:00,
2013-03-20 11:04:00,35.3,19.9,30.03,NNW,329,2.0,12.0,53,0.00,,---,0.00,VWS V14.01,2013-03-20 15:04:00,
2013-03-20 11:09:00,35.5,20.1,30.03,NW,316,5.0,12.0,53,0.00,,---,0.00,VWS V14.01,2013-03-20 15:09:00,
2013-03-20 11:14:00,35.5,19.6,30.03,WNW,287,4.0,12.0,52,0.00,,---,0.00,VWS V14.01,2013-03-20 15:14:00,
2013-03-20 11:19:00,35.6,19.7,30.03,WNW,283,2.0,12.0,52,0.00,,---,0.00,VWS V14.01,2013-03-20 15:19:00,
2013-03-20 11:24:00,35.2,18.9,30.03,WNW,284,5.0,13.0,51,0.00,,---,0.00,VWS V14.01,2013-03-20 15:24:00,
2013-03-20 11:29:00,35.1,19.3,30.03,NNW,334,3.0,13.0,52,0.00,,---,0.00,VWS V14.01,2013-03-20 15:29:00,
2013-03-20 11:30:00,35.1,19.7,30.03,WNW,297,6.0,13.0,53,0.00,,---,0.00,VWS V15.00,2013-03-20 15:30:00,
2013-03-20 11:34:00,35.3,19.9,30.03,NW,321,8.0,10.0,53,0.00,,---,0.00,VWS V14.01,2013-03-20 15:34:00,
2013-03-20 11:39:00,35.2,19.4,30.03,NW,304,5.0,10.0,52,0.00,,---,0.00,VWS V14.01,2013-03-20 15:39:00,
2013-03-20 11:44:00,35.2,19.4,30.04,NW,304,11.0,16.0,52,0.00,,---,0.00,VWS V14.01,2013-03-20 15:44:00,
2013-03-20 11:49:00,35.0,19.6,30.03,West,266,9.0,16.0,53,0.00,,---,0.00,VWS V14.01,2013-03-20 15:49:00,
2013-03-20 11:54:00,34.9,19.5,30.03,SW,222,7.0,16.0,53,0.00,,---,0.00,VWS V14.01,2013-03-20 15:54:00,
2013-03-20 11:59:00,35.2,19.8,30.03,West,279,5.0,16.0,53,0.00,,---,0.00,VWS V14.01,2013-03-20 15:59:00,
2013-03-20 12:00:00,35.4,20.4,30.03,WNW,300,6.0,16.0,54,0.00,,---,0.00,VWS V15.00,2013-03-20 16:00:00,
2013-03-20 12:04:00,35.5,19.6,30.04,SW,236,4.0,12.0,52,0.00,,---,0.00,VWS V14.01,2013-03-20 16:04:00,
2013-03-20 12:09:00,35.1,20.1,30.03,WNW,300,7.0,12.0,54,0.00,,---,0.00,VWS V14.01,2013-03-20 16:09:00,
2013-03-20 12:14:00,36.0,19.6,30.03,WNW,290,13.0,16.0,51,0.00,,---,0.00,VWS V14.01,2013-03-20 16:14:00,
2013-03-20 12:19:00,36.1,17.8,30.03,WSW,248,5.0,16.0,47,0.00,,---,0.00,VWS V14.01,2013-03-20 16:19:00,
2013-03-20 12:24:00,36.4,18.6,30.03,West,279,11.0,16.0,48,0.00,,---,0.00,VWS V14.01,2013-03-20 16:24:00,
2013-03-20 12:29:00,36.2,17.9,30.03,WSW,258,5.0,16.0,47,0.00,,---,0.00,VWS V14.01,2013-03-20 16:29:00,
2013-03-20 12:30:00,36.3,17.5,30.03,West,281,10.0,16.0,46,0.00,,---,0.00,VWS V15.00,2013-03-20 16:30:00,
2013-03-20 12:34:00,36.1,16.3,30.03,WNW,295,8.0,13.0,44,0.00,,---,0.00,VWS V14.01,2013-03-20 16:34:00,
2013-03-20 12:39:00,35.9,17.6,30.03,NW,307,7.0,14.0,47,0.00,,---,0.00,VWS V14.01,2013-03-20 16:39:00,
2013-03-20 12:45:00,36.1,18.3,30.03,NNW,328,6.0,15.0,48,0.00,,---,0.00,VWS V14.01,2013-03-20 16:45:00,
2013-03-20 12:50:00,35.5,17.8,30.03,NW,310,6.0,15.0,48,0.00,,---,0.00,VWS V14.01,2013-03-20 16:50:00,
2013-03-20 12:54:00,35.8,17.6,30.03,West,277,10.0,16.0,47,0.00,,---,0.00,VWS V14.01,2013-03-20 16:54:00,
2013-03-20 12:59:00,35.6,16.9,30.04,WNW,290,7.0,16.0,46,0.00,,---,0.00,VWS V14.01,2013-03-20 16:59:00,
2013-03-20 13:00:00,35.5,16.8,30.04,WNW,299,8.0,19.0,46,0.00,,---,0.00,VWS V15.00,2013-03-20 17:00:00,
2013-03-20 13:05:00,35.4,16.7,30.03,West,280,7.0,14.0,46,0.00,,---,0.00,VWS V14.01,2013-03-20 17:05:00,
2013-03-20 13:09:00,35.5,16.8,30.03,WNW,302,5.0,15.0,46,0.00,,---,0.00,VWS V14.01,2013-03-20 17:09:00,
2013-03-20 13:14:00,36.2,17.9,30.03,West,260,8.0,15.0,47,0.00,,---,0.00,VWS V14.01,2013-03-20 17:14:00,
2013-03-20 13:19:00,35.5,17.8,30.03,WNW,294,6.0,15.0,48,0.00,,---,0.00,VWS V14.01,2013-03-20 17:19:00,
2013-03-20 13:24:00,34.8,16.1,30.03,West,277,3.0,15.0,46,0.00,,---,0.00,VWS V14.01,2013-03-20 17:24:00,
2013-03-20 13:29:00,35.0,16.3,30.03,NW,310,5.0,15.0,46,0.00,,---,0.00,VWS V14.01,2013-03-20 17:29:00,
2013-03-20 13:30:00,34.9,16.2,30.03,West,280,8.0,15.0,46,0.00,,---,0.00,VWS V15.00,2013-03-20 17:30:00,
2013-03-20 13:34:00,34.7,16.0,30.03,WNW,285,6.0,11.0,46,0.00,,---,0.00,VWS V14.01,2013-03-20 17:34:00,
2013-03-20 13:39:00,35.1,16.9,30.03,WNW,300,7.0,16.0,47,0.00,,---,0.00,VWS V14.01,2013-03-20 17:39:00,
2013-03-20 13:44:00,34.9,16.7,30.03,WNW,285,6.0,16.0,47,0.00,,---,0.00,VWS V14.01,2013-03-20 17:44:00,
2013-03-20 13:49:00,35.6,18.3,30.03,NW,319,11.0,17.0,49,0.00,,---,0.00,VWS V14.01,2013-03-20 17:49:00,
2013-03-20 13:54:00,35.3,17.6,30.03,West,259,4.0,17.0,48,0.00,,---,0.00,VWS V14.01,2013-03-20 17:54:00,
2013-03-20 13:59:00,35.6,19.3,30.03,NW,326,4.0,17.0,51,0.00,,---,0.00,VWS V14.01,2013-03-20 17:59:00,
2013-03-20 14:00:00,35.8,18.5,30.03,SW,235,5.0,17.0,49,0.00,,---,0.00,VWS V15.00,2013-03-20 18:00:00,
2013-03-20 14:04:00,35.7,18.0,30.03,West,262,9.0,10.0,48,0.00,,---,0.00,VWS V14.01,2013-03-20 18:04:00,
2013-03-20 14:09:00,35.9,19.1,30.02,NW,304,2.0,10.0,50,0.00,,---,0.00,VWS V14.01,2013-03-20 18:09:00,
2013-03-20 14:14:00,36.3,19.5,30.02,WNW,282,4.0,11.0,50,0.00,,---,0.00,VWS V14.01,2013-03-20 18:14:00,
2013-03-20 14:19:00,36.1,18.3,30.02,West,276,13.0,16.0,48,0.00,,---,0.00,VWS V14.01,2013-03-20 18:19:00,
2013-03-20 14:24:00,36.2,17.4,30.02,WNW,300,8.0,17.0,46,0.00,,---,0.00,VWS V14.01,2013-03-20 18:24:00,
2013-03-20 14:29:00,36.6,18.3,30.01,West,259,9.0,17.0,47,0.00,,---,0.00,VWS V14.01,2013-03-20 18:29:00,
2013-03-20 14:30:00,36.3,17.5,30.01,NNW,342,6.0,17.0,46,0.00,,---,0.00,VWS V15.00,2013-03-20 18:30:00,
2013-03-20 14:34:00,36.0,18.2,30.01,West,260,5.0,10.0,48,0.00,,---,0.00,VWS V14.01,2013-03-20 18:34:00,
2013-03-20 14:39:00,36.2,18.4,30.00,WNW,290,4.0,10.0,48,0.00,,---,0.00,VWS V14.01,2013-03-20 18:39:00,
2013-03-20 14:44:00,35.9,17.6,30.00,WNW,295,4.0,11.0,47,0.00,,---,0.00,VWS V14.01,2013-03-20 18:44:00,
2013-03-20 14:49:00,35.3,16.6,30.00,West,279,7.0,11.0,46,0.00,,---,0.00,VWS V14.01,2013-03-20 18:49:00,
2013-03-20 14:54:00,35.3,16.1,30.00,West,265,8.0,14.0,45,0.00,,---,0.00,VWS V14.01,2013-03-20 18:54:00,
2013-03-20 14:59:00,35.4,16.7,30.00,WNW,284,6.0,14.0,46,0.00,,---,0.00,VWS V14.01,2013-03-20 18:59:00,
2013-03-20 15:00:00,35.3,16.1,30.00,WNW,294,10.0,16.0,45,0.00,,---,0.00,VWS V15.00,2013-03-20 19:00:00,
2013-03-20 15:04:00,35.5,17.8,29.99,WNW,288,8.0,14.0,48,0.00,,---,0.00,VWS V14.01,2013-03-20 19:04:00,
2013-03-20 15:09:00,35.2,16.0,29.99,West,276,5.0,14.0,45,0.00,,---,0.00,VWS V14.01,2013-03-20 19:09:00,
2013-03-20 15:14:00,35.0,16.3,29.99,WSW,253,8.0,14.0,46,0.00,,---,0.00,VWS V14.01,2013-03-20 19:14:00,
2013-03-20 15:19:00,35.3,17.6,29.99,NW,304,6.0,14.0,48,0.00,,---,0.00,VWS V14.01,2013-03-20 19:19:00,
2013-03-20 15:24:00,36.2,17.9,29.98,WNW,291,2.0,14.0,47,0.00,,---,0.00,VWS V14.01,2013-03-20 19:24:00,
2013-03-20 15:29:00,36.2,17.4,29.98,WNW,284,9.0,14.0,46,0.00,,---,0.00,VWS V14.01,2013-03-20 19:29:00,
2013-03-20 15:30:00,36.0,16.2,29.97,West,274,4.0,14.0,44,0.00,,---,0.00,VWS V15.00,2013-03-20 19:30:00,
2013-03-20 15:34:00,36.2,16.9,29.98,NW,308,12.0,12.0,45,0.00,,---,0.00,VWS V14.01,2013-03-20 19:34:00,
2013-03-20 15:39:00,36.1,15.8,29.97,WNW,302,6.0,14.0,43,0.00,,---,0.00,VWS V14.01,2013-03-20 19:39:00,
2013-03-20 15:44:00,36.0,16.7,29.97,West,271,5.0,14.0,45,0.00,,---,0.00,VWS V14.01,2013-03-20 19:44:00,
2013-03-20 15:49:00,35.8,15.5,29.97,NW,305,7.0,17.0,43,0.00,,---,0.00,VWS V14.01,2013-03-20 19:49:00,
2013-03-20 15:54:00,35.7,16.5,29.97,West,274,18.0,19.0,45,0.00,,---,0.00,VWS V14.01,2013-03-20 19:54:00,
2013-03-20 15:59:00,36.4,15.5,29.96,WNW,295,7.0,19.0,42,0.00,,---,0.00,VWS V14.01,2013-03-20 19:59:00,
2013-03-20 16:00:00,36.5,15.6,29.96,WNW,295,8.0,19.0,42,0.00,,---,0.00,VWS V15.00,2013-03-20 20:00:00,
2013-03-20 16:04:00,36.4,15.5,29.97,WNW,282,4.0,17.0,42,0.00,,---,0.00,VWS V14.01,2013-03-20 20:04:00,
2013-03-20 16:09:00,36.7,16.9,29.97,WNW,302,6.0,17.0,44,0.00,,---,0.00,VWS V14.01,2013-03-20 20:09:00,
2013-03-20 16:14:00,36.0,15.7,29.96,WNW,301,6.0,17.0,43,0.00,,---,0.00,VWS V14.01,2013-03-20 20:14:00,
2013-03-20 16:19:00,35.7,15.9,29.96,West,263,3.0,17.0,44,0.00,,---,0.00,VWS V14.01,2013-03-20 20:19:00,
2013-03-20 16:24:00,35.2,15.0,29.96,West,266,2.0,17.0,43,0.00,,---,0.00,VWS V14.01,2013-03-20 20:24:00,
2013-03-20 16:29:00,34.7,15.0,29.96,NW,310,7.0,17.0,44,0.00,,---,0.00,VWS V14.01,2013-03-20 20:29:00,
2013-03-20 16:30:00,34.7,15.0,29.96,West,269,8.0,17.0,44,0.00,,---,0.00,VWS V15.00,2013-03-20 20:30:00,
2013-03-20 16:34:00,34.8,15.6,29.96,NW,309,5.0,15.0,45,0.00,,---,0.00,VWS V14.01,2013-03-20 20:34:00,
2013-03-20 16:39:00,35.1,15.9,29.96,WNW,293,5.0,15.0,45,0.00,,---,0.00,VWS V14.01,2013-03-20 20:39:00,
2013-03-20 16:44:00,35.2,15.0,29.96,WNW,288,6.0,15.0,43,0.00,,---,0.00,VWS V14.01,2013-03-20 20:44:00,
2013-03-20 16:49:00,35.2,15.5,29.96,WNW,295,6.0,15.0,44,0.00,,---,0.00,VWS V14.01,2013-03-20 20:49:00,
2013-03-20 16:54:00,34.7,15.6,29.96,WNW,295,5.0,15.0,45,0.00,,---,0.00,VWS V14.01,2013-03-20 20:54:00,
2013-03-20 16:59:00,34.5,14.9,29.96,WSW,257,9.0,15.0,44,0.00,,---,0.00,VWS V14.01,2013-03-20 20:59:00,
2013-03-20 17:00:00,34.4,15.3,29.96,West,277,4.0,15.0,45,0.00,,---,0.00,VWS V15.00,2013-03-20 21:00:00,
2013-03-20 17:04:00,34.5,15.4,29.96,NNW,332,3.0,10.0,45,0.00,,---,0.00,VWS V14.01,2013-03-20 21:04:00,
2013-03-20 17:09:00,35.0,14.8,29.96,WNW,290,6.0,12.0,43,0.00,,---,0.00,VWS V14.01,2013-03-20 21:09:00,
2013-03-20 17:14:00,34.7,15.6,29.96,WNW,288,2.0,15.0,45,0.00,,---,0.00,VWS V14.01,2013-03-20 21:14:00,
2013-03-20 17:19:00,34.4,15.3,29.96,West,276,5.0,15.0,45,0.00,,---,0.00,VWS V14.01,2013-03-20 21:19:00,
2013-03-20 17:24:00,34.3,15.2,29.96,WSW,255,14.0,15.0,45,0.00,,---,0.00,VWS V14.01,2013-03-20 21:24:00,
2013-03-20 17:29:00,34.1,15.0,29.96,WNW,283,3.0,15.0,45,0.00,,---,0.00,VWS V14.01,2013-03-20 21:29:00,
2013-03-20 17:30:00,34.2,16.1,29.96,NNW,333,3.0,15.0,47,0.00,,---,0.00,VWS V15.00,2013-03-20 21:30:00,
2013-03-20 17:34:00,34.5,16.4,29.96,NW,307,4.0,12.0,47,0.00,,---,0.00,VWS V14.01,2013-03-20 21:34:00,
2013-03-20 17:39:00,34.0,15.9,29.96,WNW,300,5.0,12.0,47,0.00,,---,0.00,VWS V14.01,2013-03-20 21:39:00,
2013-03-20 17:44:00,33.6,16.5,29.97,NNW,345,6.0,13.0,49,0.00,,---,0.00,VWS V14.01,2013-03-20 21:44:00,
2013-03-20 17:49:00,33.2,16.6,29.97,WNW,301,4.0,13.0,50,0.00,,---,0.00,VWS V14.01,2013-03-20 21:49:00,
2013-03-20 17:54:00,33.0,15.9,29.97,WNW,295,4.0,13.0,49,0.00,,---,0.00,VWS V14.01,2013-03-20 21:54:00,
2013-03-20 17:59:00,32.8,15.8,29.97,WNW,293,8.0,13.0,49,0.00,,---,0.00,VWS V14.01,2013-03-20 21:59:00,
2013-03-20 18:00:00,32.6,15.6,29.97,West,274,7.0,14.0,49,0.00,,---,0.00,VWS V15.00,2013-03-20 22:00:00,
2013-03-20 18:04:00,32.5,15.5,29.98,NW,307,5.0,14.0,49,0.00,,---,0.00,VWS V14.01,2013-03-20 22:04:00,
2013-03-20 18:09:00,32.4,15.4,29.97,SW,225,4.0,14.0,49,0.00,,---,0.00,VWS V14.01,2013-03-20 22:09:00,
2013-03-20 18:14:00,32.2,15.2,29.98,WNW,290,5.0,22.0,49,0.00,,---,0.00,VWS V14.01,2013-03-20 22:14:00,
2013-03-20 18:19:00,32.1,15.1,29.97,West,276,4.0,22.0,49,0.00,,---,0.00,VWS V14.01,2013-03-20 22:19:00,
2013-03-20 18:24:00,32.0,15.0,29.98,WSW,256,10.0,22.0,49,0.00,,---,0.00,VWS V14.01,2013-03-20 22:24:00,
2013-03-20 18:29:00,31.8,14.4,29.98,WSW,240,6.0,22.0,48,0.00,,---,0.00,VWS V14.01,2013-03-20 22:29:00,
2013-03-20 18:30:00,31.7,14.7,29.98,NNW,333,6.0,22.0,49,0.00,,---,0.00,VWS V15.00,2013-03-20 22:30:00,
2013-03-20 18:34:00,31.7,14.7,29.98,SW,228,10.0,10.0,49,0.00,,---,0.00,VWS V14.01,2013-03-20 22:34:00,
2013-03-20 18:39:00,31.6,14.2,29.98,WNW,296,3.0,11.0,48,0.00,,---,0.00,VWS V14.01,2013-03-20 22:39:00,
2013-03-20 18:44:00,31.5,14.6,29.98,NW,310,5.0,11.0,49,0.00,,---,0.00,VWS V14.01,2013-03-20 22:44:00,
2013-03-20 18:49:00,31.5,14.6,29.99,West,264,4.0,11.0,49,0.00,,---,0.00,VWS V14.01,2013-03-20 22:49:00,
2013-03-20 18:54:00,31.3,14.4,29.99,WNW,288,5.0,12.0,49,0.00,,---,0.00,VWS V14.01,2013-03-20 22:54:00,
2013-03-20 18:59:00,30.9,14.5,29.99,West,264,6.0,17.0,50,0.00,,---,0.00,VWS V14.01,2013-03-20 22:59:00,
2013-03-20 19:00:00,30.7,14.3,29.99,NNW,335,8.0,17.0,50,0.00,,---,0.00,VWS V15.00,2013-03-20 23:00:00,
2013-03-20 19:04:00,30.5,14.5,29.99,WNW,301,8.0,10.0,51,0.00,,---,0.00,VWS V14.01,2013-03-20 23:04:00,
2013-03-20 19:09:00,30.2,14.3,30.00,West,269,5.0,16.0,51,0.00,,---,0.00,VWS V14.01,2013-03-20 23:09:00,
2013-03-20 19:14:00,30.0,14.1,30.00,NW,304,7.0,16.0,51,0.00,,---,0.00,VWS V14.01,2013-03-20 23:14:00,
2013-03-20 19:19:00,30.0,14.5,30.00,WNW,294,6.0,16.0,52,0.00,,---,0.00,VWS V14.01,2013-03-20 23:19:00,
2013-03-20 19:24:00,29.8,13.4,30.00,NW,312,7.0,16.0,50,0.00,,---,0.00,VWS V14.01,2013-03-20 23:24:00,
2013-03-20 19:29:00,29.7,13.8,30.01,West,267,7.0,16.0,51,0.00,,---,0.00,VWS V14.01,2013-03-20 23:29:00,
2013-03-20 19:30:00,29.6,13.7,30.01,West,281,8.0,16.0,51,0.00,,---,0.00,VWS V15.00,2013-03-20 23:30:00,
2013-03-20 19:34:00,29.4,13.5,30.01,NW,311,5.0,16.0,51,0.00,,---,0.00,VWS V14.01,2013-03-20 23:34:00,
2013-03-20 19:39:00,29.2,13.8,30.01,WNW,296,3.0,16.0,52,0.00,,---,0.00,VWS V14.01,2013-03-20 23:39:00,
2013-03-20 19:44:00,28.9,13.5,30.01,WNW,294,9.0,16.0,52,0.00,,---,0.00,VWS V14.01,2013-03-20 23:44:00,
2013-03-20 19:49:00,28.7,13.3,30.01,NW,308,11.0,16.0,52,0.00,,---,0.00,VWS V14.01,2013-03-20 23:49:00,
2013-03-20 19:54:00,28.5,14.0,30.02,WNW,291,5.0,18.0,54,0.00,,---,0.00,VWS V14.01,2013-03-20 23:54:00,
2013-03-20 19:59:00,28.2,13.7,30.02,WNW,290,8.0,18.0,54,0.00,,---,0.00,VWS V14.01,2013-03-20 23:59:00,
2013-03-20 20:00:00,28.1,14.0,30.02,WNW,291,5.0,18.0,55,0.00,,---,0.00,VWS V15.00,2013-03-21 00:00:00,
2013-03-20 20:04:00,28.0,14.3,30.02,WNW,300,4.0,6.0,56,0.00,,---,0.00,VWS V14.01,2013-03-21 00:04:00,
2013-03-20 20:09:00,27.8,14.2,30.02,WNW,302,4.0,10.0,56,0.00,,---,0.00,VWS V14.01,2013-03-21 00:09:00,
2013-03-20 20:14:00,27.7,14.5,30.02,West,281,4.0,10.0,57,0.00,,---,0.00,VWS V14.01,2013-03-21 00:14:00,
2013-03-20 20:19:00,27.5,14.3,30.02,WNW,292,8.0,13.0,57,0.00,,---,0.00,VWS V14.01,2013-03-21 00:19:00,
2013-03-20 20:24:00,27.2,14.4,30.02,NW,309,10.0,13.0,58,0.00,,---,0.00,VWS V14.01,2013-03-21 00:24:00,
2013-03-20 20:29:00,27.0,13.8,30.02,NW,313,3.0,13.0,57,0.00,,---,0.00,VWS V14.01,2013-03-21 00:29:00,
2013-03-20 20:30:00,27.0,13.8,30.02,West,272,7.0,13.0,57,0.00,,---,0.00,VWS V15.00,2013-03-21 00:30:00,
2013-03-20 20:34:00,26.9,13.7,30.02,WNW,293,9.0,12.0,57,0.00,,---,0.00,VWS V14.01,2013-03-21 00:34:00,
2013-03-20 20:39:00,26.8,13.6,30.02,West,262,3.0,12.0,57,0.00,,---,0.00,VWS V14.01,2013-03-21 00:39:00,
2013-03-20 20:44:00,26.7,13.9,30.02,WNW,287,5.0,12.0,58,0.00,,---,0.00,VWS V14.01,2013-03-21 00:44:00,
2013-03-20 20:49:00,26.7,14.3,30.03,WSW,240,6.0,12.0,59,0.00,,---,0.00,VWS V14.01,2013-03-21 00:49:00,
2013-03-20 20:54:00,26.6,14.6,30.03,West,277,4.0,12.0,60,0.00,,---,0.00,VWS V14.01,2013-03-21 00:54:00,
2013-03-20 20:59:00,26.5,14.5,30.02,West,264,2.0,12.0,60,0.00,,---,0.00,VWS V14.01,2013-03-21 00:59:00,
2013-03-20 21:00:00,26.5,14.5,30.03,WNW,297,3.0,12.0,60,0.00,,---,0.00,VWS V15.00,2013-03-21 01:00:00,
2013-03-20 21:04:00,26.4,14.0,30.02,WNW,295,7.0,8.0,59,0.00,,---,0.00,VWS V14.01,2013-03-21 01:04:00,
2013-03-20 21:09:00,26.3,13.1,30.02,West,273,8.0,13.0,57,0.00,,---,0.00,VWS V14.01,2013-03-21 01:09:00,
2013-03-20 21:14:00,26.2,13.1,30.03,West,278,4.0,13.0,57,0.00,,---,0.00,VWS V14.01,2013-03-21 01:14:00,
2013-03-20 21:19:00,26.1,13.4,30.03,West,269,4.0,13.0,58,0.00,,---,0.00,VWS V14.01,2013-03-21 01:19:00,
2013-03-20 21:24:00,25.9,12.8,30.03,WSW,255,7.0,13.0,57,0.00,,---,0.00,VWS V14.01,2013-03-21 01:24:00,
2013-03-20 21:29:00,25.8,13.1,30.03,West,267,5.0,13.0,58,0.00,,---,0.00,VWS V14.01,2013-03-21 01:29:00,
2013-03-20 21:30:00,25.8,13.1,30.03,WSW,248,9.0,13.0,58,0.00,,---,0.00,VWS V15.00,2013-03-21 01:30:00,
2013-03-20 21:34:00,25.7,13.0,30.03,West,278,4.0,7.0,58,0.00,,---,0.00,VWS V14.01,2013-03-21 01:34:00,
2013-03-20 21:39:00,25.7,13.4,30.03,WNW,303,3.0,8.0,59,0.00,,---,0.00,VWS V14.01,2013-03-21 01:39:00,
2013-03-20 21:44:00,25.5,13.2,30.03,NW,304,4.0,8.0,59,0.00,,---,0.00,VWS V14.01,2013-03-21 01:44:00,
2013-03-20 21:49:00,25.5,13.2,30.03,West,278,2.0,8.0,59,0.00,,---,0.00,VWS V14.01,2013-03-21 01:49:00,
2013-03-20 21:54:00,25.4,13.1,30.03,WNW,287,3.0,8.0,59,0.00,,---,0.00,VWS V14.01,2013-03-21 01:54:00,
2013-03-20 21:59:00,25.4,13.1,30.02,West,278,6.0,8.0,59,0.00,,---,0.00,VWS V14.01,2013-03-21 01:59:00,
2013-03-20 22:00:00,25.3,13.0,30.02,West,274,4.0,8.0,59,0.00,,---,0.00,VWS V15.00,2013-03-21 02:00:00,
2013-03-20 22:04:00,25.3,13.0,30.02,West,271,3.0,4.0,59,0.00,,---,0.00,VWS V14.01,2013-03-21 02:04:00,
2013-03-20 22:09:00,25.3,13.0,30.03,WNW,283,5.0,7.0,59,0.00,,---,0.00,VWS V14.01,2013-03-21 02:09:00,
2013-03-20 22:14:00,25.3,13.0,30.02,West,273,3.0,7.0,59,0.00,,---,0.00,VWS V14.01,2013-03-21 02:14:00,
2013-03-20 22:19:00,25.3,13.0,30.02,WNW,287,4.0,7.0,59,0.00,,---,0.00,VWS V14.01,2013-03-21 02:19:00,
2013-03-20 22:24:00,25.2,13.3,30.03,WSW,242,6.0,7.0,60,0.00,,---,0.00,VWS V14.01,2013-03-21 02:24:00,
2013-03-20 22:29:00,25.1,13.2,30.03,SW,214,1.0,7.0,60,0.00,,---,0.00,VWS V14.01,2013-03-21 02:29:00,
2013-03-20 22:30:00,25.1,13.2,30.03,NW,309,2.0,7.0,60,0.00,,---,0.00,VWS V15.00,2013-03-21 02:30:00,
2013-03-20 22:34:00,25.1,13.2,30.03,WNW,283,5.0,8.0,60,0.00,,---,0.00,VWS V14.01,2013-03-21 02:34:00,
2013-03-20 22:39:00,25.1,12.8,30.03,WNW,302,6.0,8.0,59,0.00,,---,0.00,VWS V14.01,2013-03-21 02:39:00,
2013-03-20 22:44:00,25.1,12.8,30.03,WNW,287,2.0,8.0,59,0.00,,---,0.00,VWS V14.01,2013-03-21 02:44:00,
2013-03-20 22:49:00,25.1,12.8,30.02,West,281,5.0,8.0,59,0.00,,---,0.00,VWS V14.01,2013-03-21 02:49:00,
2013-03-20 22:54:00,25.1,12.8,30.02,WNW,283,3.0,8.0,59,0.00,,---,0.00,VWS V14.01,2013-03-21 02:54:00,
2013-03-20 22:59:00,25.0,12.7,30.03,WNW,290,3.0,8.0,59,0.00,,---,0.00,VWS V14.01,2013-03-21 02:59:00,
2013-03-20 23:00:00,25.0,13.1,30.03,WNW,288,2.0,8.0,60,0.00,,---,0.00,VWS V15.00,2013-03-21 03:00:00,
2013-03-20 23:04:00,24.9,13.0,30.03,WNW,295,3.0,4.0,60,0.00,,---,0.00,VWS V14.01,2013-03-21 03:04:00,
2013-03-20 23:09:00,24.9,12.6,30.02,West,271,3.0,7.0,59,0.00,,---,0.00,VWS V14.01,2013-03-21 03:09:00,
2013-03-20 23:14:00,24.9,12.6,30.02,NNW,339,2.0,7.0,59,0.00,,---,0.00,VWS V14.01,2013-03-21 03:14:00,
2013-03-20 23:19:00,24.8,12.9,30.02,NW,311,1.0,7.0,60,0.00,,---,0.00,VWS V14.01,2013-03-21 03:19:00,
2013-03-20 23:24:00,24.7,12.4,30.02,WNW,294,2.0,7.0,59,0.00,,---,0.00,VWS V14.01,2013-03-21 03:24:00,
2013-03-20 23:29:00,24.6,12.3,30.02,WNW,283,3.0,7.0,59,0.00,,---,0.00,VWS V14.01,2013-03-21 03:29:00,
2013-03-20 23:30:00,24.7,12.4,30.03,West,271,3.0,7.0,59,0.00,,---,0.00,VWS V15.00,2013-03-21 03:30:00,
2013-03-20 23:34:00,24.6,12.3,30.03,WNW,288,3.0,6.0,59,0.00,,---,0.00,VWS V14.01,2013-03-21 03:34:00,
2013-03-20 23:39:00,24.6,12.7,30.02,West,279,3.0,6.0,60,0.00,,---,0.00,VWS V14.01,2013-03-21 03:39:00,
2013-03-20 23:44:00,24.5,12.6,30.03,West,278,1.0,6.0,60,0.00,,---,0.00,VWS V14.01,2013-03-21 03:44:00,
2013-03-20 23:49:00,24.5,12.6,30.02,WNW,300,1.0,6.0,60,0.00,,---,0.00,VWS V14.01,2013-03-21 03:49:00,
2013-03-20 23:54:00,24.4,12.5,30.02,WNW,302,2.0,6.0,60,0.00,,---,0.00,VWS V14.01,2013-03-21 03:54:00,
2013-03-20 23:59:00,24.4,12.9,30.02,WNW,288,2.0,6.0,61,0.00,,---,0.00,VWS V14.01,2013-03-21 03:59:00,